This is the latest recevied weather packets stored in our database for station/object N8VDS-10. If no packets are shown the sender has not sent any weather packets the latest 10 day(s).
| Time | Temp. | Humidity | Pressure | Rain* | Wind** | Luminosity | Snow |
|---|---|---|---|---|---|---|---|
| 1777745034 | 6.67° C | 46% | 1021 hPa | 0 mm | - | 271 W/m² | - |
| 1777744729 | 6.67° C | 47% | 1021.2 hPa | 0 mm | - | 203 W/m² | - |
| 1777744423 | 7.22° C | 45% | 1020.9 hPa | 0 mm | - | 216 W/m² | - |
| 1777744121 | 6.67° C | 45% | 1020.9 hPa | 0 mm | - | 368 W/m² | - |
| 1777743818 | 7.22° C | 44% | 1021.1 hPa | 0 mm | - | 252 W/m² | - |
| 1777743514 | 6.67° C | 45% | 1021 hPa | 0 mm | - | 360 W/m² | - |
| 1777743212 | 7.22° C | 46% | 1021 hPa | 0 mm | - | 1119 W/m² | - |
| 1777742910 | 7.22° C | 44% | 1021 hPa | 0 mm | - | 771 W/m² | - |
| 1777742606 | 7.22° C | 44% | 1021.2 hPa | 0 mm | - | 273 W/m² | - |
| 1777742302 | 6.67° C | 47% | 1021.1 hPa | 0 mm | - | 244 W/m² | - |
| 1777741999 | 6.67° C | 47% | 1021.3 hPa | 0 mm | - | 361 W/m² | - |
| 1777741696 | 6.11° C | 49% | 1021.2 hPa | 0 mm | - | 201 W/m² | - |
| 1777741393 | 6.67° C | 47% | 1021.3 hPa | 0 mm | - | 172 W/m² | - |
| 1777741089 | 6.67° C | 46% | 1021.4 hPa | 0 mm | - | 208 W/m² | - |
| 1777740786 | 6.11° C | 48% | 1021.2 hPa | 0 mm | - | 207 W/m² | - |
| 1777740482 | 7.22° C | 46% | 1021.4 hPa | 0 mm | - | 225 W/m² | - |
| 1777740180 | 7.22° C | 45% | 1021.3 hPa | 0 mm | - | 309 W/m² | - |
| 1777739875 | 6.11° C | 47% | 1021.6 hPa | 0 mm | - | 282 W/m² | - |
| 1777739572 | 6.11° C | 47% | 1021.4 hPa | 0 mm | - | 262 W/m² | - |
| 1777739269 | 6.11° C | 47% | 1021.6 hPa | 0 mm | - | 268 W/m² | - |
| 1777738966 | 6.11° C | 49% | 1021.7 hPa | 0 mm | - | 204 W/m² | - |
| 1777738663 | 6.67° C | 45% | 1021.6 hPa | 0 mm | - | 231 W/m² | - |
| 1777738359 | 6.67° C | 46% | 1021.6 hPa | 0 mm | - | 278 W/m² | - |
| 1777738052 | 6.11° C | 45% | 1021.4 hPa | 0 mm | - | 316 W/m² | - |
| 1777737751 | 6.11° C | 49% | 1021.7 hPa | 0 mm | - | 223 W/m² | - |
* Rain latest hour (hover to see other rain measurements)
** Current wind speed in m/s (hover to see current wind gust speed)